Tracking 19224 objects as of 23-Jul-2018
HD Live streaming from Space Station
objects crossing your sky now

OPS 4029

Track OPS 4029 now!
OPS 4029 is classified as:


NORAD ID: 12930
Int'l Code: 1981-107A
Perigee: 32,031.3 km
Apogee: 39,605.2 km
Inclination: 7.4 °
Period: 1,437.3 minutes
Semi major axis: 42189 km
RCS: Unknown
Launch date: October 31, 1981
Source: United States (US)
Launch site: AIR FORCE EASTERN TEST RANGE (AFETR)
aabbcc
Your satellite tracking list
Your tracking list is empty




NASA's NSSDC Master Catalog

Two Line Element Set (TLE):
1 12930U 81107A   18181.41546646 0.00000000  00000-0  00000-0 0    00
2 12930   7.3684 352.5094 0897612 337.0776  19.1603  1.00184376    09
Source of the keplerian elements: McCants